This demonstration page uses our WeatherBlox Daily Observations layout. Learn more.

Left ArrowRight Arrow

Hourly Observations for October 14, 2020

Temp ( °F °C ) Dew Point ( °F °C ) Humidity (%) Winds ( mph kmh ) Pressure ( in mb ) Visibility ( mi km ) Precip ( " mm )
12:53 am 00:53 Clear 66 18.9 47 8.3 50 50 SE 8 13 29.96 1015 10 16 0.00 0.00
1:53 am 01:53 Clear 67 19.4 52 11.1 59 59 SE 10 17 29.94 1014 10 16 0.00 0.00
2:53 am 02:53 Clear 64 17.8 53 11.7 68 68 SE 10 17 29.93 1013 10 16 0.00 0.00
3:53 am 03:53 Clear 63 17.2 54 12.2 73 73 SE 9 15 29.91 1013 10 16 0.00 0.00
4:53 am 04:53 Clear 63 17.2 56 13.3 78 78 SE 9 15 29.90 1013 10 16 0.00 0.00
5:53 am 05:53 Clear 60 15.6 56 13.3 86 86 SSE 3 6 29.91 1013 10 16 0.00 0.00
6:53 am 06:53 Clear 51 10.6 44 6.7 77 77 Calm 29.93 1013 10 16 0.00 0.00
7:53 am 07:53 Clear 49 9.4 42 5.6 77 77 N 6 9 29.94 1014 10 16 0.00 0.00
8:53 am 08:53 Sunny 54 12.2 44 6.7 69 69 N 3 6 29.94 1014 10 16 0.00 0.00
9:53 am 09:53 Sunny 65 18.3 54 12.2 68 68 Calm 29.94 1014 10 16 0.00 0.00
10:53 am 10:53 Sunny 78 25.6 43 6.1 29 29 SW 7 11 29.92 1013 10 16 0.00 0.00
11:53 am 11:53 Sunny 85 29.4 40 4.4 20 20 WSW 12 19 29.90 1012 10 16 0.00 0.00
12:53 pm 12:53 Sunny 90 32.2 35 1.7 14 14 W 10 17 29.87 1012 10 16 0.00 0.00
1:53 pm 13:53 Sunny 96 35.6 34 1.1 11 11 W 10 17 29.82 1010 10 16 0.00 0.00
2:53 pm 14:53 Sunny 97 36.1 29 -1.7 9 9 WNW 13 20 29.78 1008 10 16 0.00 0.00
3:53 pm 15:53 Sunny 98 36.7 25 -3.9 7 7 SW 13 20 29.74 1007 10 16 0.00 0.00
4:53 pm 16:53 Sunny 99 37.2 25 -3.9 7 7 W 17 28 29.72 1007 10 16 0.00 0.00
5:53 pm 17:53 Sunny 97 36.1 24 -4.4 7 7 WSW 17 28 29.72 1006 10 16 0.00 0.00
6:53 pm 18:53 Sunny 94 34.4 25 -3.9 8 8 WSW 13 20 29.72 1007 10 16 0.00 0.00
7:53 pm 19:53 Clear 85 29.4 24 -4.4 11 11 WSW 9 15 29.74 1007 10 16 0.00 0.00
8:53 pm 20:53 Clear 76 24.4 24 -4.4 14 14 WSW 9 15 29.75 1008 10 16 0.00 0.00
9:53 pm 21:53 Clear 71 21.7 24 -4.4 17 17 WSW 9 15 29.75 1007 10 16 0.00 0.00
10:53 pm 22:53 Clear 70 21.1 24 -4.4 18 18 WSW 8 13 29.72 1007 10 16 0.00 0.00
11:53 pm 23:53 Clear 70 21.1 21 -6.1 16 16 WSW 12 19 29.72 1006 10 16 0.00 0.00

Powered by AerisWeather